Большевик

Беларусь     52°33′49″N   30°52′40″E
темп.,
°C
ветер,
м/с
пор.,
м/с
влажн.,
%
обл.,
%
осадки,
мм/ч
давл.,
гПа
погр.,
м
9 мая, вс
вс900:00+3зсз512795 0.0 1015319
03:00+2зсз513800 0.0 1017344
06:00+1зсз410895 0.0 1019285
09:00+7сз59600 0.0 1021961
12:00+10сз68455 0.0 10211948
15:00+12сз673950 0.0 10222375
18:00+12ссз454526 0.0 10232126
21:00+6ссв11604 0.0 102513
10 мая, пн
пн1000:00+5в11565 0.0 102610
03:00+4ююз11614 0.0 102712
06:00+4ююв11661 0.0 102814
09:00+10юв225117 0.0 1029347
12:00+14вюв22395 0.0 10281246
15:00+15всв22355 0.0 10271390
18:00+15всв32420 0.0 10261133
21:00+10всв33610 0.0 102737
11 мая, вт
вт1100:00+7всв23690 0.0 102737
03:00+6св34730 0.0 102763
06:00+5св38764 0.0 1026148
09:00+10св5106410 0.0 1025401
12:00+16св57555 0.0 1023709
15:00+19св67545 0.0 10221098
18:00+19всв59648 0.0 10211327
21:00+13в4109093 0.3 1021302
12 мая, ср
ср1200:00+11в411959 0.0 1022408
03:00+8в51194100 0.0 1021446
06:00+6в399179 0.0 1021332
09:00+11в6972100 0.0 10211083
12:00+13в6963100 0.0 10191524
15:00+14в71165100 0.8 10171666
18:00+11в7118490 1.6 10161069
21:00+8всв239091 1.9 101462
13 мая, чт
чт1300:00+8в389663 1.2 1013506
03:00+6юв489830 1.2 1012265
06:00+5юв499874 0.0 1013237
09:00+9ююв5983100 0.0 1014559
12:00+13ююв6961100 0.0 10141466
15:00+14ююв4765100 0.6 10141048
18:00+13ююв3892100 0.9 1013333
21:00+12всв2396100 2.6 101251